This is the latest recevied weather packets stored in our database for station/object N1ICS-1. If no packets are shown the sender has not sent any weather packets the latest 10 day(s).
| Time | Temp. | Humidity | Pressure | Rain* | Wind** | Luminosity | Snow |
|---|---|---|---|---|---|---|---|
| 1777979702 | 12.78° C | 92% | 1007.5 hPa | 0 mm | - | 34 W/m² | - |
| 1777979403 | 12.78° C | 92% | 1007.2 hPa | 0 mm | - | 24 W/m² | - |
| 1777979102 | 12.78° C | 92% | 1007 hPa | 0 mm | - | 25 W/m² | - |
| 1777978802 | 12.78° C | 91% | 1007 hPa | 0 mm | - | 23 W/m² | - |
| 1777978502 | 13.33° C | 91% | 1006.8 hPa | 0 mm | - | 16 W/m² | - |
| 1777978202 | 13.33° C | 91% | 1006.8 hPa | 0 mm | - | 9 W/m² | - |
| 1777977902 | 13.33° C | 90% | 1006.5 hPa | 0 mm | - | 6 W/m² | - |
| 1777977602 | 13.33° C | 91% | 1006.4 hPa | 0 mm | - | 4 W/m² | - |
| 1777977301 | 12.78° C | 92% | 1006.6 hPa | 0 mm | - | 2 W/m² | - |
| 1777977002 | 13.33° C | 91% | 1006.6 hPa | 0 mm | - | 1 W/m² | - |
| 1777976702 | 13.33° C | 90% | 1006.4 hPa | 0 mm | - | 0 W/m² | - |
| 1777976401 | 13.33° C | 92% | 1006.3 hPa | 0 mm | - | 0 W/m² | - |
| 1777976102 | 12.78° C | 93% | 1006.3 hPa | 0 mm | - | 0 W/m² | - |
| 1777975803 | 12.78° C | 94% | 1006.2 hPa | 0 mm | - | 0 W/m² | - |
| 1777975502 | 12.78° C | 94% | 1006.2 hPa | 0 mm | - | 0 W/m² | - |
| 1777975202 | 12.78° C | 94% | 1005.8 hPa | 0 mm | - | 0 W/m² | - |
| 1777974902 | 12.78° C | 94% | 1005.9 hPa | 0 mm | - | 0 W/m² | - |
| 1777974602 | 13.33° C | 93% | 1005.5 hPa | 0 mm | - | 0 W/m² | - |
| 1777974302 | 13.33° C | 92% | 1005.7 hPa | 0 mm | - | 0 W/m² | - |
| 1777974001 | 13.33° C | 92% | 1005.6 hPa | 0 mm | - | 0 W/m² | - |
| 1777973703 | 13.89° C | 90% | 1005.5 hPa | 0 mm | - | 0 W/m² | - |
| 1777973402 | 13.33° C | 92% | 1005.6 hPa | 0 mm | - | 0 W/m² | - |
| 1777973102 | 13.89° C | 90% | 1005.9 hPa | 0 mm | - | 0 W/m² | - |
| 1777972802 | 13.89° C | 90% | 1005.5 hPa | 0 mm | - | 0 W/m² | - |
| 1777972502 | 13.89° C | 91% | 1005.4 hPa | 0 mm | - | 0 W/m² | - |
* Rain latest hour (hover to see other rain measurements)
** Current wind speed in m/s (hover to see current wind gust speed)